www.pogodaiklimat.ru

Погода и климат >> Архив погоды >> Таиланд >> Сукхотаи


ПОГОДА в Сукхотаи

  • Прогноз погоды в Сукхотаи
  • Монитор погоды в Сукхотаи

АРХИВ ПОГОДЫ в Сукхотаи

Время (UTC), дата Ветер
(напр.,м/с)
 
Видим.   Явления Облачность Т
(С)
Тd
(С)
f
(%)
Тe
(С)
Тes
(С)
Комфортность P
(гПа)
Po
(гПа)
Тmin
(С)
Tmax
(С)
R
(мм)
R24
(мм)
S
(см)
00 14.04 ЮВ 3 6000 м дымка {дождь} 4/3 600 м
[Cu hum Cs]
+27.9 +25.6 87 +41 +42 опасность
перегрева
1009.3 1003.5 +27.2 0.5
03 14.04 Ю 3 8000 м мгла 3/0
[Cs]
+34.0 +25.1 60 +48 +60 опасность
перегрева
1010.0 1004.3
06 14.04 штиль 0 8000 м мгла ясно +38.7 +23.9 43 +50 +78 опасность
перегрева
1008.6 1003.0
09 14.04 Ю 3 8000 м мгла ясно +40.2 +23.7 39 +50 +57 опасность
перегрева
1004.8 999.2
12 14.04 Ю 3 8000 м мгла ясно +35.8 +24.8 53 +49 +49 опасность
перегрева
1004.5 998.9 +41.2
15 14.04 ЮВ 3 8000 м дымка ясно +31.8 +24.5 65 +44 +44 опасность
перегрева
1006.8 1001.1
18 14.04 ЮВ 3 8000 м дымка ясно +31.1 +24.4 68 +44 +44 опасность
перегрева
1007.7 1002.0
21 14.04 В 5 8000 м дымка ясно +29.4 +25.0 77 +42 +42 опасность
перегрева
1007.5 1001.8
00 15.04 Ю 2 8000 м дымка ясно +28.1 +24.1 79 +39 +40 очень
душно
1008.1 1002.3 +27.8
03 15.04 штиль 0 8000 м мгла 3/1 600 м
[Cu hum Cs]
+33.8 +24.9 60 +47 +65 опасность
перегрева
1009.9 1004.2
06 15.04 СЗ 5 8000 м мгла 3/1 600 м
[Cu hum Cs]
+38.0 +24.8 47 +51 +60 опасность
перегрева
1006.8 1001.2
09 15.04 Ю 4 8000 м мгла 3/1 600 м
[Cu hum Cs]
+39.5 +24.8 43 +52 +56 опасность
перегрева
1004.1 998.6
12 15.04 штиль 0 8000 м мгла 3/0
[Cs]
+35.7 +24.9 54 +49 +49 опасность
перегрева
1004.8 999.2 +40.5
15 15.04 Ю 17 8000 м зарница 10/4 600 м
[Cb cap Ac und Cs]
+29.4 +23.8 72 +40 +40 очень
душно
1009.1 1003.3
18 15.04 В 6 8000 м дымка 10/4 600 м
[Sc Ac und Cs]
+28.0 +22.1 70 +36 +36 очень
душно
1007.5 1001.7
21 15.04 штиль 0 8000 м дымка 5/3 600 м
[Sc Ac trans Cs]
+27.0 +23.0 79 +36 +36 очень
душно
1006.6 1000.9
00 16.04 СЗ 2 8000 м дымка 5/1 600 м
[Cu hum Cs]
+27.6 +23.8 80 +38 +39 очень
душно
1009.2 1003.4 +26.1
03 16.04 ЮЗ 3 8000 м мгла 3/0
[Cs]
+33.4 +25.2 62 +47 +59 опасность
перегрева
1010.5 1004.8
06 16.04 ЮВ 5 8000 м мгла 3/1 600 м
[Cu hum Cs]
+37.6 +25.2 49 +51 +61 опасность
перегрева
1007.4 1001.8
09 16.04 ЮЗ 8 8000 м мгла 3/1 600 м
[Cu hum Cs]
+38.7 +25.2 47 +52 +54 опасность
перегрева
1003.9 998.3
12 16.04 Ю 3 8000 м мгла 4/1 600 м
[Cu hum Cs]
+35.2 +26.0 59 +51 +51 опасность
перегрева
1004.9 999.3 +40.2
15 16.04 Ю 3 8000 м дымка 4/0
[Cs]
+32.4 +25.5 67 +47 +47 опасность
перегрева
1007.2 1001.6
18 16.04 ЮВ 2 8000 м дымка 3/0
[Cs]
+30.2 +25.1 74 +44 +44 опасность
перегрева
1007.1 1001.4
21 16.04 ЮВ 3 8000 м дымка 3/0
[Cs]
+28.8 +24.8 79 +41 +41 опасность
перегрева
1006.7 1001.0
00 17.04 штиль 0 6000 м дымка ясно +29.0 +25.5 81 +43 +44 опасность
перегрева
1008.6 1002.8 +27.0
03 17.04 штиль 0 10 км ясно +34.2 +27.0 66 +52 +73 опасность
перегрева
1011.1 1005.4
06 17.04 штиль 0 10 км ясно +39.0 +25.9 48 +54 +83 опасность
перегрева
1008.1 1002.6
09 17.04 штиль 0 10 км 3/0
[Ci fib]
+40.0 +25.9 45 +54 +64 опасность
перегрева
1004.5 999.0
12 17.04 штиль 0 8000 м мгла 5/0
[Cs]
+35.9 +26.4 58 +52 +52 опасность
перегрева
1004.4 998.8 +40.9
15 17.04 штиль 0 8000 м дымка 3/0
[Ci fib]
+33.0 +26.2 68 +49 +49 опасность
перегрева
1006.9 1001.3
18 17.04 штиль 0 8000 м дымка 3/0
[Ci fib]
+31.3 +24.1 66 +43 +43 опасность
перегрева
1006.1 1000.4
21 17.04 С 2 8000 м дымка 3/1 600 м
[Cu med, cong Cs]
+29.6 +24.6 75 +42 +42 опасность
перегрева
1005.7 999.9
00 18.04 штиль 0 6000 м дымка ясно +29.0 +25.5 81 +43 +44 опасность
перегрева
1007.6 1001.8 +27.4
03 18.04 штиль 0 10 км ясно +35.0 +25.2 57 +49 +69 опасность
перегрева
1009.2 1003.6
06 18.04 штиль 0 10 км ясно +39.4 +25.7 46 +53 +82 опасность
перегрева
1006.9 1001.3
09 18.04 штиль 0 10 км ясно +41.0 +24.2 39 +52 +63 опасность
перегрева
1002.9 997.4
12 18.04 штиль 0 8000 м мгла 5/3 600 м
[Cb cap Cs]
+36.5 +25.3 53 +51 +51 опасность
перегрева
1003.4 997.8 +41.9
15 18.04 Ю 2 8000 м мгла 3/0
[Ci fib]
+31.5 +20.6 52 +38 +38 очень
душно
1006.0 1000.3
18 18.04 В 2 8000 м дымка 3/0
[Ci fib]
+29.4 +23.8 72 +40 +40 очень
душно
1005.2 999.5
21 18.04 В 2 8000 м дымка 3/0
[Ci fib]
+27.6 +22.3 73 +36 +36 очень
душно
1004.5 998.8
00 19.04 ЮВ 3 8000 м дымка 3/0
[Ci fib]
+28.0 +23.3 76 +38 +39 очень
душно
1006.2 1000.5 +27.0
03 19.04 ЮЗ 3 10 км ясно +35.2 +24.3 53 +47 +60 опасность
перегрева
1008.1 1002.5
06 19.04 В 3 10 км ясно +40.5 +25.1 42 +53 +71 опасность
перегрева
1005.4 999.9
09 19.04 В 5 10 км 3/1 600 м
[Cu hum Ci fib]
+41.0 +23.3 37 +51 +54 опасность
перегрева
1001.9 996.4
12 19.04 ЮЗ 10 10 км 3/3 600 м
[Cu med, cong Ci fib]
+37.5 +22.9 43 +47 +47 опасность
перегрева
1001.6 996.1 +42.4
15 19.04 ЮЗ 6 10 км 3/3 600 м
[Cu med, cong Ci fib]
+34.3 +23.9 55 +46 +46 опасность
перегрева
1005.0 999.3
18 19.04 З 3 10 км 3/0
[Ci fib]
+31.4 +22.6 60 +41 +41 опасность
перегрева
1005.0 999.3
21 19.04 штиль 0 10 км ясно +29.2 +20.6 60 +36 +36 очень
душно
1004.1 998.3
00 20.04 З 5 8000 м дымка ясно +29.2 +22.6 68 +39 +39 очень
душно
1005.3 999.6 +26.7
03 20.04 З 5 8000 м мгла ясно +36.5 +23.7 48 +47 +55 опасность
перегрева
1006.1 1000.5
06 20.04 СВ 3 8000 м мгла ясно +40.5 +23.2 37 +50 +68 опасность
перегрева
1004.0 998.5
09 20.04 СВ 5 8000 м мгла ясно +42.0 +22.4 33 +50 +54 опасность
перегрева
1000.4 994.9
12 20.04 В 3 8000 м мгла 3/3 300 м
[Cb calv]
+37.0 +23.5 46 +47 +47 опасность
перегрева
1000.4 994.9 +42.9
15 20.04 ЮЗ 3 8000 м мгла 1/1 600 м
[Cu hum]
+33.0 +25.1 63 +47 +47 опасность
перегрева
1002.9 997.3
18 20.04 ЮЗ 3 8000 м мгла ясно +32.6 +23.9 60 +44 +44 опасность
перегрева
1003.0 997.3
21 20.04 В 3 8000 м дымка ясно +29.8 +23.6 69 +40 +40 очень
душно
1002.9 997.2

 

Местоположение метеостанции Сукхотаи (Таиланд): широта 17.10 долгота 99.80 высота над уровнем моря 50 м.

В архиве по умолчанию представлена погода в Сукхотаи за последнюю неделю. Архивные данные за месяц целиком и за предыдущие месяцы, начиная с января 2011 года, Вы можете получить, выбрав интересующий диапазон дат из раскрывающегося списка и нажав кнопку "Ввод!".


*Определитесь, кто Вы:
робот инопланетянин человек

Внимание! Время в таблицах - всемирное. Для получения местного времени необходимо прибавить поправку, которая равна 7 ч.

Смотрите также архив погоды в соседних городах и на ближайших метеорологических станциях:

Погода в Си Самронг Агромете (Таиланд) (11 км)
Погода в Пхитсанулоке (Таиланд) (61 км)
Погода в Уттарадите (Таиланд) (66 км)
Погода в Таке (Таиланд) (73 км)
Погода в Кампхэнгпхете (Таиланд) (75 км)
Погода в Тоене (Таиланд) (84 км)
Погода на Плотине Пумипона (Таиланд) (85 км)
Погода в Пичит Агромете (Таиланд) (90 км)
Погода в Дои Му Со Агромете (Таиланд) (100 км)
Погода в Прхрэ (Таиланд) (125 км)

Пояснения к столбцам:

Ветер - указаны скорость ветра в м/с - средняя за 10 мин, порывы в срок и между сроками (в фигурных скобках) и направление, откуда дует ветер: С - северный, СВ - северо-восточный, В - восточный, ЮВ - юго-восточный, Ю - южный, ЮЗ - юго-западный, З - западный, СЗ - северо-западный.
Видимость - горизонтальная дальность видимости в метрах или километрах. При видимости от 1 до 10 км при отсутствии осадков обычно наблюдается дымка, при ухудшении видимости до 1 км и менее - туман. В сухую погоду видимость может ухудшаться дымом, пылью или мглою.
Явления - указаны атмосферные явления, наблюдавшиеся в срок или в последний час перед сроком; фигурными скобками обозначены явления, наблюдавшиеся между сроками (за 1-3 часа до срока); квадратными скобками обозначены град или гололедные отложения с указанием их диаметра в мм.
Облачность - указаны через наклонную черту общая и нижняя облачность в баллах и высота нижней границы облаков в метрах; квадратными скобками обозначены формы облаков: Ci - перистые, Cs - перисто-слоистые, Cc - перисто-кучевые, Ac - высококучевые, As - высокослоистые, Sc - слоисто-кучевые, Ns - слоисто-дождевые, Cu - кучевые, Cb - кучево-дождевые. Подробнее классификацию облаков см. в Атласе облаков (PDF).
T - Температура воздуха - температура, измеренная на высоте 2 м над землей.
Td - Температура точки росы - температура, при понижении до которой содержащийся в воздухе водяной пар достигнет насыщения.
f - Относительная влажность воздуха - влажноcть воздуха, измеренная на высоте 2 м над землей.
Te - Эффективная температура - температура, которую ощущает одетый по сезону человек в тени. Характеристика душности погоды. При расчете учитывается влияние влажности воздуха и скорости ветра на теплоощущения человека.
Tes - Эффективная температура на солнце - температура, которую ощущает человек, с поправкой на солнечный нагрев. Характеристика знойности погоды. Зависит от высоты солнца над горизонтом, облачности и скорости ветра. Ночью, в пасмурную погоду, а также при ветре 12 м/с и более поправка равна нулю.
P - Атмосферное давление - приведенное к уровню моря атмосферное давление.
Po - Атмосферное давление - измеренное на уровне метеостанции атмосферное давление.
Tmin - Минимальная температура - минимум температуры воздуха на высоте 2 м над землей.
Tmax - Максимальная температура - максимум температуры воздуха на высоте 2 м над землей.
R - Количество осадков - Количество выпавших осадков за период времени, мм. При наведении курсора мыши на число - период времени, за который выпало указанное количество осадков.
R24 - Количество осадков - Количество выпавших осадков за 24 часа, мм.
S - Снежный покров - Высота снежного покрова, см. При наведении курсора мыши на число - состояние снежного покрова и степень покрытия местности в баллах.